User: anonymous   Login
Location: Unspecified
(0.0000°N, 0.0000°E)
Time: 17:02:31
(UTC+00:00)
Language:

Gurwin Techsat 1B - Orbit

View from above orbital plane
View from above orbital plane
View from above satellite
View from above satellite

Ground track
Ground track

The orbit data is extracted from the following two-line orbital elements,

1 25397U 98043D   17264.90432561 -.00000010 +00000-0 +14450-4 0  9990
2 25397 098.6163 205.2318 0002433 082.7741 277.3715 14.23628905997336
Epoch (UTC): 21 September 2017 21:42:13
Eccentricity: 0.0002433
inclination: 98.6163°
perigee height: 811 km
apogee height: 815 km
right ascension of ascending node: 205.2318°
argument of perigee: 82.7741°
revolutions per day: 14.23628905
mean anomaly at epoch: 277.3715°
orbit number at epoch: 99733

The dashed part of the orbit path shows where the satellite is in the earth's shadow,  

DLR